WZZ95PF EPGD-EDDH

Flight info

Callsign WZZ95PF
Flight time 0h 56m
Altitude 34000
Route DEXIR T671 AGODU L733 BODLA Z717 PODUS L619 BUMIL M748 RARUP RARUP3S
Aircraft A321/M-SDE3FGHIRWY/LB1

Departure

Time 2026-04-24 07:07
Airport Gdańsk Lech Wałęsa Airport (EPGD)

Arrival

Time 2026-04-24 08:04
Airport Hamburg Helmut Schmidt Airport (EDDH)
Time Latitude Longitude Altitude Speed Heading
2026-04-24 06:35 54.38046 18.46512 504 ft 0 kts 23°
2026-04-24 06:58 54.38024 18.46494 503 ft 4 kts 31°
2026-04-24 06:58 54.38002 18.46468 503 ft 4 kts 46°
2026-04-24 06:59 54.37988 18.46432 503 ft 4 kts 83°
2026-04-24 06:59 54.37988 18.46410 503 ft 0 kts 113°
2026-04-24 07:01 54.37988 18.46411 503 ft 0 kts 113°
2026-04-24 07:02 54.37986 18.46421 503 ft 3 kts 111°
2026-04-24 07:02 54.37976 18.46468 503 ft 6 kts 109°
2026-04-24 07:03 54.37957 18.46551 503 ft 9 kts 112°
2026-04-24 07:03 54.37929 18.46669 503 ft 12 kts 112°
2026-04-24 07:03 54.37891 18.46819 503 ft 15 kts 114°
2026-04-24 07:03 54.37845 18.47003 503 ft 18 kts 113°
2026-04-24 07:04 54.37792 18.47218 503 ft 21 kts 112°
2026-04-24 07:04 54.37732 18.47461 503 ft 23 kts 113°
2026-04-24 07:04 54.37664 18.47730 503 ft 26 kts 113°
2026-04-24 07:04 54.37593 18.48021 503 ft 25 kts 112°
2026-04-24 07:05 54.37528 18.48280 503 ft 24 kts 113°
2026-04-24 07:05 54.37459 18.48561 503 ft 27 kts 112°
2026-04-24 07:05 54.37384 18.48867 503 ft 29 kts 113°
2026-04-24 07:05 54.37327 18.49093 503 ft 16 kts 116°
2026-04-24 07:06 54.37231 18.49113 503 ft 17 kts 201°
2026-04-24 07:06 54.37161 18.49053 503 ft 5 kts 257°
2026-04-24 07:06 54.37174 18.48982 503 ft 9 kts 293°
2026-04-24 07:06 54.37260 18.48638 504 ft 65 kts 293°
2026-04-24 07:07 54.37520 18.47578 504 ft 126 kts 293°
2026-04-24 07:07 54.37925 18.45956 623 ft 158 kts 293°
2026-04-24 07:07 54.38772 18.42506 1739 ft 159 kts 292°
2026-04-24 07:08 54.39202 18.40760 2334 ft 157 kts 293°
2026-04-24 07:08 54.39627 18.39034 2874 ft 157 kts 292°
2026-04-24 07:08 54.40050 18.37320 3389 ft 156 kts 293°
2026-04-24 07:08 54.40481 18.35578 3782 ft 165 kts 293°
2026-04-24 07:09 54.40947 18.33679 4090 ft 180 kts 293°
2026-04-24 07:09 54.41452 18.31610 4430 ft 195 kts 294°
2026-04-24 07:09 54.41999 18.29380 4743 ft 213 kts 294°
2026-04-24 07:09 54.42591 18.26962 5183 ft 223 kts 294°
2026-04-24 07:10 54.43169 18.24464 5820 ft 227 kts 288°
2026-04-24 07:10 54.43298 18.21744 6438 ft 235 kts 261°
2026-04-24 07:10 54.42543 18.19221 7048 ft 247 kts 229°
2026-04-24 07:10 54.41059 18.17656 7655 ft 257 kts 204°
2026-04-24 07:11 54.39338 18.16721 8235 ft 263 kts 201°
2026-04-24 07:11 54.37569 18.15664 8603 ft 276 kts 206°
2026-04-24 07:11 54.35827 18.14142 8943 ft 286 kts 221°
2026-04-24 07:11 54.34528 18.11604 9381 ft 284 kts 248°
2026-04-24 07:12 54.33826 18.08480 10019 ft 281 kts 257°
2026-04-24 07:12 54.33252 18.05229 10504 ft 290 kts 258°
2026-04-24 07:12 54.32640 18.01828 10745 ft 308 kts 257°
2026-04-24 07:12 54.31934 17.98237 10946 ft 327 kts 255°
2026-04-24 07:13 54.31159 17.94527 11145 ft 344 kts 254°
2026-04-24 07:13 54.30308 17.90533 11344 ft 360 kts 254°
2026-04-24 07:13 54.29449 17.86487 11584 ft 373 kts 254°
2026-04-24 07:13 54.28608 17.82262 12085 ft 375 kts 257°
2026-04-24 07:14 54.27876 17.77960 12611 ft 378 kts 258°
2026-04-24 07:14 54.27170 17.73610 13128 ft 382 kts 259°
2026-04-24 07:14 54.26464 17.69212 13632 ft 385 kts 259°
2026-04-24 07:14 54.25740 17.64776 14123 ft 389 kts 258°
2026-04-24 07:15 54.24998 17.60309 14606 ft 392 kts 259°
2026-04-24 07:15 54.24244 17.55805 15085 ft 396 kts 258°
2026-04-24 07:15 54.23478 17.51264 15554 ft 399 kts 258°
2026-04-24 07:15 54.22699 17.46684 16015 ft 403 kts 257°
2026-04-24 07:16 54.21663 17.42178 16450 ft 411 kts 250°
2026-04-24 07:16 54.20412 17.37756 16896 ft 415 kts 248°
2026-04-24 07:16 54.19088 17.33345 17327 ft 419 kts 247°
2026-04-24 07:16 54.17739 17.28914 17756 ft 422 kts 247°
2026-04-24 07:17 54.16395 17.24436 18170 ft 425 kts 248°
2026-04-24 07:17 54.15065 17.19913 18591 ft 428 kts 248°
2026-04-24 07:17 54.13739 17.15352 18993 ft 431 kts 248°
2026-04-24 07:17 54.12416 17.10824 19391 ft 433 kts 248°
2026-04-24 07:18 54.11055 17.06218 19795 ft 436 kts 248°
2026-04-24 07:18 54.09766 17.01543 20165 ft 435 kts 253°
2026-04-24 07:18 54.08815 16.96649 20554 ft 434 kts 258°
2026-04-24 07:18 54.07986 16.91697 20918 ft 436 kts 259°
2026-04-24 07:19 54.07201 16.86699 21284 ft 438 kts 260°
2026-04-24 07:19 54.06406 16.81671 21642 ft 441 kts 259°
2026-04-24 07:19 54.05577 16.76629 21987 ft 443 kts 259°
2026-04-24 07:19 54.04716 16.71564 22331 ft 446 kts 258°
2026-04-24 07:20 54.03842 16.66489 22664 ft 448 kts 258°
2026-04-24 07:20 54.02970 16.61395 22985 ft 450 kts 258°
2026-04-24 07:20 54.02100 16.56264 23305 ft 452 kts 258°
2026-04-24 07:20 54.01242 16.51172 23616 ft 454 kts 258°
2026-04-24 07:21 54.00367 16.46001 23899 ft 457 kts 258°
2026-04-24 07:21 53.99482 16.40804 24191 ft 459 kts 258°
2026-04-24 07:21 53.98587 16.35587 24471 ft 461 kts 258°
2026-04-24 07:21 53.97681 16.30345 24754 ft 463 kts 258°
2026-04-24 07:22 53.96771 16.25092 25040 ft 465 kts 258°
2026-04-24 07:22 53.95857 16.19820 25330 ft 466 kts 258°
2026-04-24 07:22 53.94919 16.14535 25603 ft 469 kts 256°
2026-04-24 07:22 53.93602 16.09429 25850 ft 477 kts 245°
2026-04-24 07:23 53.91855 16.04607 26121 ft 481 kts 240°
2026-04-24 07:23 53.89986 15.99887 26371 ft 484 kts 239°
2026-04-24 07:23 53.88068 15.95183 26606 ft 486 kts 239°
2026-04-24 07:23 53.86159 15.90453 26863 ft 487 kts 240°
2026-04-24 07:24 53.84285 15.85672 27090 ft 488 kts 241°
2026-04-24 07:24 53.82433 15.80848 27315 ft 489 kts 241°
2026-04-24 07:24 53.80578 15.76012 27585 ft 489 kts 241°
2026-04-24 07:24 53.78707 15.71209 27863 ft 489 kts 240°
2026-04-24 07:25 53.76813 15.66422 28165 ft 489 kts 240°
2026-04-24 07:25 53.74917 15.61657 28463 ft 488 kts 240°
2026-04-24 07:25 53.73052 15.56957 28746 ft 487 kts 240°
2026-04-24 07:25 53.71174 15.52201 29016 ft 487 kts 241°
2026-04-24 07:26 53.69302 15.47449 29298 ft 486 kts 241°
2026-04-24 07:26 53.67426 15.42714 29575 ft 485 kts 240°
2026-04-24 07:26 53.65556 15.37984 29834 ft 485 kts 241°
2026-04-24 07:26 53.63717 15.33226 30086 ft 484 kts 242°
2026-04-24 07:27 53.61902 15.28451 30337 ft 483 kts 242°
2026-04-24 07:27 53.60094 15.23694 30591 ft 482 kts 242°
2026-04-24 07:27 53.58270 15.18957 30842 ft 482 kts 242°
2026-04-24 07:27 53.56433 15.14240 31078 ft 482 kts 242°
2026-04-24 07:28 53.54598 15.09544 31337 ft 480 kts 242°
2026-04-24 07:28 53.52763 15.04849 31580 ft 479 kts 242°
2026-04-24 07:28 53.50937 15.00165 31816 ft 479 kts 242°
2026-04-24 07:28 53.49114 14.95484 32038 ft 478 kts 242°
2026-04-24 07:29 53.47290 14.90815 32257 ft 478 kts 242°
2026-04-24 07:29 53.45463 14.86162 32462 ft 477 kts 242°
2026-04-24 07:29 53.43629 14.81498 32702 ft 476 kts 242°
2026-04-24 07:29 53.41806 14.76864 32899 ft 476 kts 242°
2026-04-24 07:30 53.39981 14.72237 33098 ft 476 kts 242°
2026-04-24 07:30 53.38158 14.67625 33287 ft 475 kts 242°
2026-04-24 07:30 53.36330 14.63013 33491 ft 474 kts 242°
2026-04-24 07:30 53.34531 14.58481 33692 ft 474 kts 242°
2026-04-24 07:31 53.32710 14.53896 33861 ft 473 kts 242°
2026-04-24 07:31 53.30888 14.49308 34036 ft 473 kts 242°
2026-04-24 07:31 53.27464 14.40000 34073 ft 465 kts 251°
2026-04-24 07:32 53.25339 14.29912 34101 ft 459 kts 258°
2026-04-24 07:32 53.23480 14.19724 34101 ft 459 kts 258°
2026-04-24 07:33 53.21509 14.09578 34103 ft 460 kts 257°
2026-04-24 07:33 53.19484 13.99462 34111 ft 460 kts 257°
2026-04-24 07:34 53.17496 13.89335 34144 ft 458 kts 257°
2026-04-24 07:34 53.15518 13.79252 34165 ft 458 kts 257°
2026-04-24 07:35 53.13519 13.69177 34122 ft 458 kts 257°
2026-04-24 07:35 53.11501 13.59111 34106 ft 458 kts 257°
2026-04-24 07:36 53.09476 13.49060 34113 ft 458 kts 257°
2026-04-24 07:36 53.07655 13.40048 34107 ft 458 kts 256°
2026-04-24 07:37 53.05608 13.30014 34119 ft 458 kts 256°
2026-04-24 07:37 53.03558 13.19985 34120 ft 458 kts 256°
2026-04-24 07:38 53.01502 13.09962 34135 ft 458 kts 256°
2026-04-24 07:38 52.99430 12.99954 34136 ft 458 kts 256°
2026-04-24 07:39 52.97348 12.89949 34136 ft 458 kts 256°
2026-04-24 07:39 52.96023 12.80750 34143 ft 448 kts 271°
2026-04-24 07:40 52.96172 12.72257 34148 ft 443 kts 278°
2026-04-24 07:40 52.96652 12.62069 34116 ft 444 kts 278°
2026-04-24 07:41 52.96987 12.51847 34106 ft 440 kts 277°
2026-04-24 07:41 52.97115 12.46813 33736 ft 435 kts 277°
2026-04-24 07:41 52.97253 12.41797 32997 ft 436 kts 277°
2026-04-24 07:42 52.97413 12.36725 32056 ft 442 kts 277°
2026-04-24 07:42 52.97586 12.31589 31047 ft 450 kts 277°
2026-04-24 07:42 52.97750 12.26390 30260 ft 451 kts 277°
2026-04-24 07:42 52.97901 12.21183 29435 ft 453 kts 277°
2026-04-24 07:43 52.98047 12.15949 28588 ft 455 kts 277°
2026-04-24 07:43 52.98169 12.11620 27878 ft 456 kts 276°
2026-04-24 07:43 52.98318 12.06349 27002 ft 458 kts 276°
2026-04-24 07:43 52.98466 12.01063 26144 ft 459 kts 276°
2026-04-24 07:44 52.98609 11.95799 25526 ft 453 kts 276°
2026-04-24 07:44 52.98744 11.90606 24889 ft 448 kts 276°
2026-04-24 07:44 52.98876 11.85467 24235 ft 443 kts 276°
2026-04-24 07:44 52.99158 11.80487 23553 ft 435 kts 283°
2026-04-24 07:45 52.99850 11.75641 22892 ft 429 kts 288°
2026-04-24 07:45 53.00655 11.70893 22216 ft 424 kts 289°
2026-04-24 07:45 53.01488 11.66215 21562 ft 420 kts 289°
2026-04-24 07:45 53.02303 11.61578 20902 ft 417 kts 289°
2026-04-24 07:46 53.03092 11.56957 20246 ft 413 kts 289°
2026-04-24 07:46 53.04124 11.52560 19602 ft 406 kts 298°
2026-04-24 07:46 53.05417 11.48417 18954 ft 401 kts 301°
2026-04-24 07:46 53.06764 11.44385 18307 ft 397 kts 302°
2026-04-24 07:47 53.08123 11.40405 17654 ft 394 kts 302°
2026-04-24 07:47 53.09454 11.36453 17020 ft 390 kts 301°
2026-04-24 07:47 53.10749 11.32515 16381 ft 386 kts 301°
2026-04-24 07:47 53.11876 11.28467 15716 ft 386 kts 291°
2026-04-24 07:48 53.12482 11.24126 15078 ft 385 kts 282°
2026-04-24 07:48 53.12865 11.19731 14445 ft 382 kts 280°
2026-04-24 07:48 53.13185 11.15367 13811 ft 378 kts 280°
2026-04-24 07:48 53.13503 11.11048 13169 ft 374 kts 280°
2026-04-24 07:49 53.13849 11.06771 12522 ft 370 kts 281°
2026-04-24 07:49 53.14218 11.02547 11880 ft 367 kts 281°
2026-04-24 07:49 53.14586 10.98368 11240 ft 363 kts 281°
2026-04-24 07:49 53.14945 10.94229 10612 ft 360 kts 281°
2026-04-24 07:50 53.15293 10.90112 9997 ft 356 kts 281°
2026-04-24 07:50 53.15627 10.86081 9612 ft 345 kts 281°
2026-04-24 07:50 53.15944 10.82208 9440 ft 330 kts 281°
2026-04-24 07:50 53.16247 10.78513 9290 ft 314 kts 281°
2026-04-24 07:51 53.16533 10.75023 9156 ft 302 kts 281°
2026-04-24 07:51 53.16812 10.71628 9030 ft 290 kts 282°
2026-04-24 07:51 53.17081 10.68360 8913 ft 279 kts 282°
2026-04-24 07:51 53.17341 10.65213 8719 ft 271 kts 282°
2026-04-24 07:52 53.17598 10.62114 8408 ft 268 kts 282°
2026-04-24 07:52 53.17850 10.59045 8098 ft 267 kts 282°
2026-04-24 07:52 53.18098 10.55988 7847 ft 265 kts 282°
2026-04-24 07:52 53.18342 10.52947 7597 ft 264 kts 282°
2026-04-24 07:53 53.18585 10.49917 7347 ft 263 kts 282°
2026-04-24 07:53 53.18827 10.46896 7097 ft 263 kts 282°
2026-04-24 07:53 53.19068 10.43886 6847 ft 261 kts 282°
2026-04-24 07:53 53.19306 10.40889 6596 ft 260 kts 282°
2026-04-24 07:54 53.19716 10.37993 6331 ft 254 kts 297°
2026-04-24 07:54 53.20741 10.35683 6067 ft 247 kts 323°
2026-04-24 07:54 53.22218 10.34259 5819 ft 246 kts 334°
2026-04-24 07:54 53.23771 10.33086 5504 ft 245 kts 335°
2026-04-24 07:55 53.25313 10.31895 5228 ft 243 kts 334°
2026-04-24 07:55 53.26817 10.30628 4979 ft 242 kts 332°
2026-04-24 07:55 53.28310 10.29322 4726 ft 241 kts 332°
2026-04-24 07:55 53.29781 10.28059 4477 ft 240 kts 333°
2026-04-24 07:56 53.31263 10.26811 4301 ft 238 kts 333°
2026-04-24 07:56 53.32724 10.25585 4172 ft 231 kts 333°
2026-04-24 07:56 53.34126 10.24393 4043 ft 221 kts 332°
2026-04-24 07:56 53.35339 10.23352 4002 ft 211 kts 332°
2026-04-24 07:57 53.36510 10.22351 4003 ft 206 kts 333°
2026-04-24 07:57 53.37789 10.21264 3999 ft 205 kts 333°
2026-04-24 07:57 53.39033 10.20207 3908 ft 196 kts 332°
2026-04-24 07:57 53.40219 10.19195 3770 ft 186 kts 332°
2026-04-24 07:58 53.41357 10.18219 3526 ft 182 kts 332°
2026-04-24 07:58 53.42480 10.17260 3237 ft 180 kts 332°
2026-04-24 07:58 53.43595 10.16307 2993 ft 180 kts 332°
2026-04-24 07:58 53.44718 10.15352 2991 ft 181 kts 332°
2026-04-24 07:59 53.45822 10.14405 3036 ft 172 kts 332°
2026-04-24 07:59 53.46851 10.13522 3008 ft 162 kts 332°
2026-04-24 07:59 53.47853 10.12663 3007 ft 161 kts 332°
2026-04-24 07:59 53.48852 10.11807 3004 ft 161 kts 332°
2026-04-24 08:00 53.49830 10.10970 2948 ft 153 kts 332°
2026-04-24 08:00 53.50768 10.10166 2768 ft 151 kts 332°
2026-04-24 08:00 53.51704 10.09360 2572 ft 151 kts 332°
2026-04-24 08:00 53.52616 10.08576 2403 ft 143 kts 332°
2026-04-24 08:01 53.53495 10.07823 2197 ft 142 kts 332°
2026-04-24 08:01 53.54364 10.07073 2001 ft 141 kts 332°
2026-04-24 08:01 53.55237 10.06322 1805 ft 141 kts 332°
2026-04-24 08:01 53.56110 10.05573 1607 ft 140 kts 332°
2026-04-24 08:02 53.56978 10.04824 1404 ft 140 kts 330°
2026-04-24 08:02 53.57844 10.04074 1211 ft 139 kts 330°
2026-04-24 08:02 53.58705 10.03333 1015 ft 139 kts 330°
2026-04-24 08:02 53.59565 10.02596 820 ft 139 kts 330°
2026-04-24 08:03 53.60417 10.01842 625 ft 138 kts 330°
2026-04-24 08:03 53.61276 10.01122 440 ft 138 kts 331°
2026-04-24 08:03 53.62129 10.00386 257 ft 137 kts 330°
2026-04-24 08:03 53.62976 9.99651 86 ft 137 kts 330°
2026-04-24 08:04 53.63769 9.98962 54 ft 102 kts 333°
2026-04-24 08:04 53.64159 9.98627 54 ft 41 kts 333°
2026-04-24 08:04 53.64387 9.98433 54 ft 31 kts 332°
2026-04-24 08:04 53.64576 9.98370 54 ft 24 kts
2026-04-24 08:05 53.64685 9.98406 54 ft 12 kts 44°
2026-04-24 08:05 53.64685 9.98510 54 ft 9 kts 140°
2026-04-24 08:05 53.64615 9.98573 54 ft 13 kts 153°
2026-04-24 08:05 53.64522 9.98654 54 ft 17 kts 153°
2026-04-24 08:06 53.64406 9.98755 54 ft 21 kts 153°
2026-04-24 08:06 53.64270 9.98872 54 ft 24 kts 153°
2026-04-24 08:06 53.64113 9.99007 54 ft 27 kts 153°
2026-04-24 08:06 53.63965 9.99134 54 ft 22 kts 153°
2026-04-24 08:07 53.63828 9.99257 54 ft 24 kts 144°
2026-04-24 08:07 53.63710 9.99472 54 ft 27 kts 125°
2026-04-24 08:07 53.63612 9.99697 54 ft 20 kts 126°
2026-04-24 08:07 53.63524 9.99905 54 ft 23 kts 125°
2026-04-24 08:08 53.63454 10.00066 54 ft 14 kts 126°
2026-04-24 08:08 53.63387 10.00156 54 ft 14 kts 174°
2026-04-24 08:08 53.63277 10.00172 54 ft 18 kts 175°
2026-04-24 08:09 53.63025 10.00138 54 ft 17 kts 213°
2026-04-24 08:09 53.62925 10.00036 54 ft 12 kts 191°
2026-04-24 08:09 53.62840 10.00075 54 ft 15 kts 151°
2026-04-24 08:09 53.62752 10.00153 54 ft 8 kts 153°
2026-04-24 08:10 53.62711 10.00205 54 ft 6 kts 91°
2026-04-24 08:10 53.62725 10.00265 54 ft 6 kts 62°
2026-04-24 08:10 53.62735 10.00297 54 ft 1 kts 62°
2026-04-24 08:10 53.62737 10.00303 54 ft 0 kts 62°